Weather History for Atwater, CA

Change the Weather History Date:

Sunday, October 27, 2013

  Actual Average (KMCE) Record (KMCE)
Temperature  
Mean Temperature 62 °F 60 °F  
Max Temperature 82 °F 74 °F 88 °F (2003)
Min Temperature 42 °F 46 °F 36 °F (2010)
Degree Days  
Heating Degree Days 3    
Month to date heating degree days  
Since 1 July heating degree days  
Cooling Degree Days 0    
Month to date cooling degree days  
Year to date cooling degree days  
Growing Degree Days 12 (Base 50)    
Moisture  
Dew Point 47 °F    
Average Humidity 81    
Maximum Humidity 100    
Minimum Humidity 18    
Precipitation  
Precipitation 0.00 in 0.05 in 0.11 in (2005)
Month to date precipitation 0.59  
Year to date precipitation 9.58  
Since 1 July precipitation 0.90  
Snow  
Snow 0.00 in - - ()
Month to date snowfall  
Since 1 July snowfall  
Since 1 September snowfall  
Snow Depth -    
Sea Level Pressure  
Sea Level Pressure 29.86 in    
Wind  
Wind Speed 4 mph (SW)    
Max Wind Speed 24 mph    
Max Gust Speed 32 mph    
Visibility 9 miles    
Events      
T = Trace of Precipitation, MM = Missing Value Source: NWS Daily Summary

Daily Weather History Graph

Daily Weather History Graph

Search for Another Location

Airport:

Trip Planner

Search our weather history database for the weather conditions in past years. The results will help you decide how hot, cold, wet, or windy it might be!

Date:

Astronomy

Oct. 27, 2013 Rise Set
Actual Time 7:22 AM PDT 6:09 PM PDT
Civil Twilight 6:55 AM PDT 6:36 PM PDT
Nautical Twilight 6:24 AM PDT 7:06 PM PDT
Astronomical Twilight 5:54 AM PDT 7:37 PM PDT
Moon 12:32 AM PDT (10/27) 2:13 PM PDT (10/27)
Length of Visible Light 11h 40m
Length of Day
10h 47m
Last Quarter, 42% of the Moon is Illuminated
Oct 27
Last Quarter
Nov 3
New
Nov 9
First Quarter
Nov 17
Full
Nov 25
Last Quarter

Hourly Weather History & Observations

Time (PDT) Temp. Windchill Dew Point Humidity Pressure Visibility Wind Dir Wind Speed Gust Speed Precip Events Conditions
12:15 AM 51.8 °F - 51.8 °F 100% 30.01 in 10.0 mi Calm Calm - N/A   Clear
12:35 AM 51.8 °F - 51.8 °F 100% 30.01 in 10.0 mi Calm Calm - N/A   Clear
12:55 AM 50.0 °F - 50.0 °F 100% 30.01 in 10.0 mi Calm Calm - N/A   Clear
1:15 AM 50.0 °F - 50.0 °F 100% 30.00 in 9.0 mi Calm Calm - N/A   Clear
1:35 AM 48.2 °F - 48.2 °F 100% 30.00 in 10.0 mi SE 3.5 mph - N/A   Clear
1:55 AM 48.2 °F - 48.2 °F 100% 30.00 in 10.0 mi Calm Calm - N/A   Clear
2:15 AM 48.2 °F - 48.2 °F 100% 29.99 in 10.0 mi Calm Calm - N/A   Clear
2:35 AM 48.2 °F - 48.2 °F 100% 29.99 in 10.0 mi Calm Calm - N/A   Clear
2:55 AM 48.2 °F - 48.2 °F 100% 29.98 in 10.0 mi Calm Calm - N/A   Clear
3:15 AM 48.2 °F - 48.2 °F 100% 29.98 in 10.0 mi Calm Calm - N/A   Clear
3:35 AM 48.2 °F - 48.2 °F 100% 29.97 in 9.0 mi Calm Calm - N/A   Clear
3:55 AM 48.2 °F - 48.2 °F 100% 29.96 in 10.0 mi Calm Calm - N/A   Clear
4:15 AM 48.2 °F - 48.2 °F 100% 29.96 in 10.0 mi Calm Calm - N/A   Clear
4:35 AM 46.4 °F - 46.4 °F 100% 29.96 in 9.0 mi Calm Calm - N/A   Clear
4:55 AM 46.4 °F - 46.4 °F 100% 29.96 in 8.0 mi Calm Calm - N/A   Clear
5:15 AM 46.4 °F - 46.4 °F 100% 29.95 in 8.0 mi Calm Calm - N/A   Clear
5:35 AM 44.6 °F - 44.6 °F 100% 29.95 in 10.0 mi Calm Calm - N/A   Clear
5:55 AM 44.6 °F 43.1 °F 44.6 °F 100% 29.94 in 10.0 mi SSE 3.5 mph - N/A   Clear
6:15 AM 44.6 °F 43.1 °F 44.6 °F 100% 29.94 in 9.0 mi SSE 3.5 mph - N/A   Clear
6:35 AM 44.6 °F - 44.6 °F 100% 29.94 in 9.0 mi Calm Calm - N/A   Clear
6:45 AM 42.8 °F - 42.8 °F 100% 29.94 in 10.0 mi Calm Calm - N/A   Clear
6:55 AM 44.6 °F - 44.6 °F 100% 29.94 in 10.0 mi Calm Calm - N/A   Clear
7:45 AM 44.6 °F - 44.6 °F 100% 29.94 in 10.0 mi Calm Calm - N/A   Clear
8:45 AM 53.6 °F - 48.2 °F 82% 29.94 in 10.0 mi SE 10.4 mph - N/A   Clear
9:45 AM 64.4 °F - 44.6 °F 49% 29.93 in 7.0 mi SE 6.9 mph - N/A   Clear
10:45 AM 69.8 °F - 46.4 °F 43% 29.92 in 7.0 mi South 6.9 mph - N/A   Clear
11:45 AM 75.2 °F - 44.6 °F 34% 29.90 in 7.0 mi South 5.8 mph - N/A   Clear
12:45 PM 78.8 °F - 41.0 °F 26% 29.86 in 7.0 mi South 6.9 mph - N/A   Clear
2:45 PM 82.4 °F - 37.4 °F 20% 29.78 in 10.0 mi SW 6.9 mph - N/A   Clear
3:45 PM 82.4 °F - 37.4 °F 20% 29.75 in 10.0 mi SW 9.2 mph - N/A   Clear
4:45 PM 78.8 °F - 32.0 °F 18% 29.72 in 10.0 mi SW 13.8 mph - N/A   Clear
5:25 PM 73.4 °F - 35.6 °F 25% 29.70 in 4.0 mi WSW 16.1 mph 20.7 mph N/A   Clear
5:45 PM 68.0 °F - 41.0 °F 37% 29.70 in 4.0 mi West 20.7 mph 28.8 mph N/A   Clear
6:45 PM 57.2 °F - 51.8 °F 82% 29.71 in 4.0 mi West 23.0 mph 31.1 mph N/A   Widespread Dust
7:45 PM 55.4 °F - 51.8 °F 88% 29.72 in 4.0 mi West 24.2 mph 32.2 mph N/A   Widespread Dust
8:45 PM 55.4 °F - 51.8 °F 88% 29.72 in 7.0 mi WSW 13.8 mph 18.4 mph N/A   Clear
9:15 PM 55.4 °F - 50.0 °F 82% 29.71 in 10.0 mi West 10.4 mph - N/A   Clear
9:35 PM 55.4 °F - 48.2 °F 77% 29.67 in 10.0 mi WSW 12.7 mph 17.3 mph N/A   Clear
9:55 PM 55.4 °F - 48.2 °F 77% 29.68 in 10.0 mi West 12.7 mph - N/A   Clear
10:15 PM 55.4 °F - 48.2 °F 77% 29.68 in 10.0 mi West 10.4 mph - N/A   Clear
10:35 PM 55.4 °F - 48.2 °F 77% 29.68 in 10.0 mi West 13.8 mph 20.7 mph N/A   Clear
10:55 PM 55.4 °F - 48.2 °F 77% 29.68 in 10.0 mi West 11.5 mph - N/A   Clear
11:15 PM 55.4 °F - 51.8 °F 88% 29.68 in 10.0 mi West 12.7 mph 20.7 mph N/A   Clear
11:35 PM 53.6 °F - 51.8 °F 94% 29.67 in 7.0 mi West 9.2 mph - N/A   Clear
11:55 PM 53.6 °F - 51.8 °F 94% 29.67 in 7.0 mi West 6.9 mph - N/A   Clear